Regional Weather Roundup
Issued by NWS Charleston, SC

Current Version | Previous Version | Graphics & Text | Print | Product List | Glossary On
Versions: 1 2 3 4 5 6 7 8 9 10 11 12 13 14 15 16 17 18 19 20 21 22 23 24 25 26 27 28 29 30 31 32 33 34 35 36 37 38 39 40 41 42 43 44 45 46 47 48 49 50
000 ASUS42 KCHS 291825 RWRCHS REGIONAL WEATHER ROUNDUP NATIONAL WEATHER SERVICE CHARLESTON SC 200 PM EDT FRI AUG 29 2014 NOTE: "FAIR" INDICATES FEW OR NO CLOUDS BELOW 12,000 FEET WITH NO SIGNIFICANT WEATHER AND/OR OBSTRUCTIONS TO VISIBILITY. NOT ALL STATIONS ARE QUALITY CONTROLLED BY THE NATIONAL WEATHER SERVICE. USE DATA WITH CAUTION...ESPECIALLY DEWPOINT OBSERVATIONS. SCZ027-030-031-034>040-042>050-291900- ...SOUTH CAROLINA... CITY SKY/WX TMP DP RH WIND PRES REMARKS N CHARLESTON PTSUNNY 91 73 55 S5 30.08S HX 99 6HR MIN TEMP: 74; 6HR MAX TEMP: 91; WATERFRONT PRK N/A 84 N/A N/A E20 N/A FORT JOHNSON NOT AVBL MOUNT PLEASANT FAIR 88 73 62 SE8 30.08S HX 96 JOHNS ISLAND MOCLDY 86 77 74 CALM 30.08F HX 97 PINOPOLIS N/A 88 72 58 N3 30.00F HX 94 MONCKS CORNER N/A 91 73 55 S3 30.07F HX 100 SUMMERVILLE FAIR 91 70 49 CALM 30.08S HX 97 BEAUFORT MCAS SUNNY 90 65 43 SW3 30.07F HX 92 6HR MIN TEMP: 74; 6HR MAX TEMP: 91; BEAUFORT ARPT FAIR 88 68 51 CALM 30.07S HX 91 HILTON HEAD IS MOSUNNY 86 73 66 E6 30.09S HX 93 GEORGETOWN NOT AVBL WALTERBORO PTCLDY 91 59 33 CALM 30.07F HX 90 ORANGEBURG SUNNY 93 55 27 SE9 30.07F HX 91 6HR MIN TEMP: 69; 6HR MAX TEMP: 93; BARNWELL FAIR 91 61 35 S7 30.07F HX 91 AIKEN FAIR 95 63 34 SE10G17 30.10S HX 96 MANNING FAIR 91 68 46 S3 30.08F HX 95 KINGSTREE NOT AVBL COLUMBIA MOSUNNY 94 60 32 SE12 30.07S HX 94 6HR MIN TEMP: 71; 6HR MAX TEMP: 94; SUMTER SUNNY 93 64 38 SE10 30.06F HX 94 6HR MIN TEMP: 73; 6HR MAX TEMP: 93; FLORENCE SUNNY 92 62 36 CALM 30.08F HX 92 6HR MIN TEMP: 72; 6HR MAX TEMP: 93; MYRTLE BEACH MOSUNNY 88 70 55 SE10 30.09F HX 92 N MYRTLE BEACH SUNNY 85 70 60 SE9 30.10R 6HR MIN TEMP: 74; 6HR MAX TEMP: 87; $$ GAZ063-065-086>088-099>101-113>116-118-119-134-136>141-150-291900- ...GEORGIA... CITY SKY/WX TMP DP RH WIND PRES REMARKS SAVANNAH ARPT MOSUNNY 91 64 40 CALM 30.07S HX 92 6HR MIN TEMP: 73; 6HR MAX TEMP: 92; HUNTER AAF MOSUNNY 90 65 44 VRB3 30.05S HX 92 6HR MIN TEMP: 73; 6HR MAX TEMP: 91; 6HR PCP: TRACE; FORT STEWART MOSUNNY 92 62 36 VRB6 30.04F HX 92 6HR MIN TEMP: 69; 6HR MAX TEMP: 92; STATESBORO NOT AVBL SYLVANIA CLEAR 89 66 46 SW6 30.07F HX 91 CLAXTON NOT AVBL THOMSON SUNNY 95 64 35 CALM 30.11S HX 97 AUGUSTA-BUSH SUNNY 93 59 31 MISG 30.06S HX 92 6HR MIN TEMP: 64; 6HR MAX TEMP: 93; AUGUSTA-DANIEL SUNNY 93 59 31 S9 30.08S HX 92 SWAINSBORO FAIR 97 63 32 E5 30.06F HX 98 VIDALIA N/A 95 63 34 SE6 30.05F HX 96 ALMA SUNNY 93 63 36 E5 30.06F HX 94 6HR MIN TEMP: 67; 6HR MAX TEMP: 94; WAYCROSS MOSUNNY 95 65 37 CALM 30.04F HX 97 JESUP N/A 97 64 34 CALM 30.05F HX 99 BRUNSWICK PTSUNNY 90 70 51 SE12 30.07S HX 95 SAINT SIMONS SUNNY 86 75 69 E13 30.07S HX 95 6HR MIN TEMP: 74; 6HR MAX TEMP: 87; $$ SCZ027-028-034-036>038-045-046-048>050-GAZ119-141-291900- ...LAKE AND SUPPLEMENTAL COASTAL OBSERVATIONS... STATION/POSITION TIME TEMP WIND PRES WAVE SWELL AIR SEA DIR/SP/G HT/PER HT/PER/DIR (UTC) (F) (DEG/KT/KT) (MB) (FT/S) (FT/S/D) UPR LAKE MARION NOT AVBL WINYAH BAY 1800 83 110/ 8 1019.0S LAKE MURRAY 1800 86 220/ 4/ 6 1017.6S ACE BASIN NERRS 1800 88 210/ 1 1019.0S FORT PULASKI 1800 85 140/ 5/ 7 1018.6F SAPELO ISLAND 1800 90 100/ 7 1019.0S $$ ANZ835-935-AMZ111-154-330-350-352-354-374-450-454-472-291900- ...C-MAN AND BUOY OBSERVATIONS... STATION/POSITION TIME TEMP WIND PRES WAVE SWELL AIR SEA DIR/SP/G HT/PER HT/PER/DIR (UTC) (F) (DEG/KT/KT) (MB) (FT/S) (FT/S/D) FOLLY BEACH CMAN 1800 82 100/ 6/ 7 1019.2F BUOY 41004 1800 84 86 CALM / 2 1018.6F 3/ 8 3/ 8 BUOY 41008 1800 82 85 70/ 6/ 8 1018.6S 2/ 9 2/100/ 9 5E ST. MARYS GA 1800 86 N/A 2/ 9 FRYING PAN BUOY NOT AVBL BUOY 41025 1800 80 CALM / 2 1019.8R 3/ 9 3/120/ 9 CAPE LOOKOUT NC 1800 84 220/ 6/ 8 1019.5R BUOY 41002 1700 81 84 80/ 6/ 8 1020.8 4/ 8 5/110/ 8 BUOY 41010 1800 79 82 30/ 2/ 4 1019.2F 3/ 8 3/110/ 8 BUOY 41012 NOT AVBL ST AUGUSTINE FL 1800 82 90/ 9/ 11 1018.5F CAPERS NEARSHORE 1700 82 90/ 8/ 8 N/A FRIPP NEARSHORE NOT AVBL $$

USA.gov is the U.S. government's official web portal to all federal, state and local government web resources and services.